Retour au catalogue

STARLINK-36710

ActifCommunicationsSSO
NORAD 67971·PAYLOAD·🇺🇸 United States

Lancé Feb 25, 2026 depuis Vandenberg Space Force Base

Loading…

Prochains Passages (prochaines 24 heures)

TLE

FraisSource: CelesTrak SupGP

Époque: Sep 14, 2026, 21:30 UTC

1 67971C 26038L   26257.89631944  .00037001  00000+0  11488-2 0  2576
2 67971  97.2847 266.3148 0001683  88.8290 299.8291 15.33415694    14

Suivez STARLINK-36710 en temps réel avec AllMySat

Download on the App Store